GFSWCAN_925_temp_000.txt.gz
Temp
5 5 5 5 5 5 5 5 6 5 6 6 6 6 6 6 6 6 6 6 6 6 8 11 13 12 11 12 14 14 14 15 16 17 21 25 27 28 29 29 27 27 28 29 28 27 27 25 29 27 27 29 30 31
5 5 5 5 5 5 5 5 5 6 6 6 6 6 6 6 6 6 6 7 6 6 8 10 10 11 11 13 13 13 13 13 15 16 20 21 23 26 28 28 28 28 29 29 28 29 24 25 23 26 28 29 30 30
5 5 5 5 5 5 5 5 5 6 6 6 6 6 6 6 6 5 6 6 7 8 10 12 13 13 12 12 12 13 14 14 15 16 16 17 18 23 24 27 28 27 28 28 25 25 24 23 24 26 27 28 29 30
5 5 5 6 6 5 6 5 6 6 6 6 6 6 6 6 6 6 5 6 7 8 10 14 14 14 13 13 13 12 14 14 14 15 14 16 17 22 22 23 24 24 25 25 25 22 24 23 22 23 25 26 27 28
6 6 6 6 6 6 6 6 6 6 6 6 6 6 6 6 6 6 6 7 7 8 11 12 13 14 14 13 13 13 13 12 12 13 13 15 20 20 22 21 17 16 19 25 25 21 19 18 20 22 23 24 25 26
6 5 6 6 6 6 6 7 7 6 6 6 6 6 7 7 6 8 10 6 7 8 10 11 15 15 15 14 14 14 14 13 13 16 14 12 19 19 18 16 15 16 18 19 22 21 17 16 18 21 21 22 23 24
6 5 6 6 6 6 6 6 6 6 6 6 6 6 6 6 7 9 8 8 7 8 7 9 14 17 15 15 15 15 15 15 16 18 15 13 17 19 15 15 16 16 18 20 20 18 17 16 15 18 21 22 22 23
6 6 6 6 6 6 6 6 6 6 6 6 6 6 6 7 7 9 8 6 6 7 9 9 13 15 17 18 17 17 16 15 18 19 12 14 16 17 14 14 16 16 16 14 15 17 19 18 15 17 21 22 21 20
6 6 6 6 6 6 6 6 6 6 6 6 7 7 7 8 10 10 7 6 6 7 8 10 12 14 19 19 19 18 19 17 18 17 16 17 14 14 13 14 14 16 16 15 14 13 15 16 16 17 17 21 22 21
6 6 6 6 6 6 6 6 6 7 7 7 7 10 11 10 8 8 7 10 9 8 9 11 15 15 16 19 19 20 20 17 15 16 17 14 13 13 13 13 13 14 14 15 14 13 13 14 16 16 18 18 20 21
6 6 6 6 6 6 6 6 6 7 8 8 9 10 10 9 10 12 12 11 10 11 13 14 15 15 17 16 18 21 20 19 15 17 15 14 12 13 13 13 13 13 13 14 15 15 14 15 19 19 19 20 21 21
6 6 6 6 6 7 7 6 6 7 7 6 6 6 8 11 12 11 12 13 11 13 15 15 15 15 15 15 18 20 21 21 18 19 18 13 12 13 13 14 14 14 14 15 16 16 18 19 19 18 18 18 19 20
6 6 6 7 6 6 6 6 6 6 6 7 8 10 11 11 10 10 11 13 12 14 16 16 16 16 16 18 20 21 20 18 20 18 16 13 13 14 14 15 16 17 17 17 18 18 19 19 19 19 19 18 19 19
7 7 7 7 7 7 6 7 7 6 8 9 9 8 7 9 10 11 11 12 15 16 16 17 17 14 19 19 20 19 20 20 18 17 14 14 14 15 15 16 17 18 18 18 19 19 19 20 20 19 19 18 19 19
8 8 8 7 7 7 7 8 8 7 8 8 6 7 8 9 11 14 14 16 17 17 17 18 17 18 19 19 19 19 18 16 14 13 14 15 14 16 16 17 18 18 19 18 19 19 19 19 20 19 19 19 18 18
8 8 8 8 8 8 9 8 9 9 9 10 10 10 12 13 15 16 15 16 17 16 17 18 17 17 17 17 15 15 15 12 13 12 13 14 16 16 16 17 18 18 18 19 19 19 19 19 19 19 19 19 19 18
9 9 8 8 8 8 9 9 11 12 13 13 13 14 14 15 15 15 16 16 16 18 17 18 16 15 17 14 12 12 10 10 12 14 14 15 16 16 17 17 18 18 18 18 19 19 18 18 19 20 20 19 19 18
9 8 7 8 8 9 11 11 13 14 13 14 14 14 14 15 15 15 14 15 16 17 17 15 17 14 13 13 12 12 12 12 14 14 15 16 16 16 17 17 17 18 18 18 18 19 19 19 21 21 20 19 20 20
7 7 8 8 7 8 12 13 12 13 14 14 14 15 15 15 15 15 16 15 15 16 17 17 15 14 13 13 13 14 14 15 15 16 17 16 16 16 16 17 17 17 17 17 17 19 19 17 18 19 20 20 20 20
9 8 8 9 8 11 13 12 12 13 13 13 14 14 15 15 15 16 16 17 18 17 16 15 15 15 16 16 16 16 16 16 15 16 16 16 17 17 16 17 17 17 18 18 17 17 18 18 18 18 18 18 19 19
8 8 8 8 10 10 12 12 13 12 12 14 14 14 15 16 15 15 15 17 16 16 16 16 16 16 14 14 15 15 16 15 15 15 15 14 15 17 17 17 17 17 17 17 18 17 17 17 16 16 17 17 17 17
8 7 8 9 11 11 12 11 11 12 13 14 14 14 14 14 14 14 14 14 13 12 12 13 14 15 15 14 15 14 14 14 14 14 12 13 17 17 17 16 17 17 16 16 16 16 16 15 14 15 15 15 16 16
6 7 9 10 9 8 10 11 11 10 11 12 14 13 12 12 12 12 10 11 10 12 11 13 13 14 14 14 14 14 15 15 15 14 14 15 15 15 15 15 15 16 16 15 15 15 15 13 14 14 14 14 15 15
6 8 9 9 10 11 12 12 12 12 13 12 9 9 11 11 12 12 13 13 13 14 14 14 14 15 16 17 17 16 16 17 18 17 16 17 17 15 15 15 15 15 14 14 14 14 14 14 13 14 13 14 14 14
8 8 10 9 10 12 14 14 14 14 14 14 13 14 14 13 14 15 14 14 15 15 16 16 17 17 17 17 17 16 15 15 16 18 16 16 16 16 16 15 14 13 13 13 13 13 13 13 13 13 13 13 12 12
9 12 11 14 15 14 15 16 15 15 15 15 15 16 16 16 17 15 14 13 14 16 16 16 16 16 16 15 15 15 14 14 14 15 14 14 14 15 15 15 15 14 11 11 11 12 12 12 12 12 12 12 11 11
14 16 15 12 13 13 15 15 14 15 16 16 16 17 18 16 15 14 14 14 15 14 14 15 15 15 15 14 13 13 13 13 13 12 12 12 11 11 11 11 11 9 9 9 10 10 10 10 10 10 10 10 10 9
15 15 16 17 15 15 16 17 17 17 18 17 17 17 16 15 13 14 14 14 15 14 14 14 14 13 13 12 12 11 12 12 13 13 13 13 12 11 9 9 8 7 7 6 6 7 6 7 7 7 7 8 8 7
16 18 15 17 17 17 17 18 19 18 17 18 17 16 14 13 13 12 11 11 10 11 10 10 12 12 12 12 12 12 11 10 11 11 11 12 11 9 8 7 7 7 7 6 5 5 4 4 4 5 5 6 6 5
19 18 18 19 18 18 17 19 18 17 16 15 13 11 9 9 8 8 8 8 8 9 11 12 11 11 11 11 11 10 10 9 8 8 10 9 8 7 6 6 5 5 5 5 5 5 4 4 5 5 4 4 4 3
19 20 19 19 18 18 18 18 16 16 15 12 10 10 10 9 8 8 8 8 10 11 11 12 11 10 9 9 9 9 9 7 6 6 5 6 5 5 4 4 4 4 4 4 4 4 3 4 4 4 4 3 3 2
20 18 18 19 18 17 17 17 16 13 12 10 10 11 12 12 12 11 9 12 12 12 10 10 9 9 7 7 7 6 4 4 3 3 1 2 2 2 3 3 3 3 3 3 3 3 3 3 3 2 2 2 2 2
20 21 20 20 20 19 18 17 16 14 13 14 13 13 14 13 12 11 9 9 9 9 9 8 8 7 6 6 5 5 5 4 2 1 0 -1 -1 -1 1 1 1 2 2 3 3 3 3 2 2 2 2 2 2 2

GFSWCAN_925_temp_003.txt.gz
Temp
5 5 5 5 5 5 5 5 5 6 6 6 7 6 6 6 7 6 7 7 6 7 8 11 13 13 13 15 13 11 18 15 17 16 18 22 23 26 27 29 29 28 29 29 30 29 29 30 32 30 29 30 32 32
5 5 5 5 6 6 5 5 6 5 6 7 7 6 7 6 6 6 6 7 6 6 9 10 12 13 14 15 16 16 15 13 17 15 15 16 18 22 26 27 31 30 31 30 31 31 28 29 29 29 30 31 31 32
5 5 5 5 6 6 6 6 6 6 6 7 6 6 6 6 6 6 6 6 6 7 9 13 15 15 14 13 14 15 16 16 16 15 15 14 15 18 22 26 30 29 32 32 30 27 27 28 28 29 30 30 31 32
5 5 6 6 6 6 6 6 7 7 7 7 6 6 6 6 6 6 6 7 6 7 10 14 17 17 16 16 15 15 15 16 15 16 15 14 15 15 18 18 22 19 26 29 27 26 25 25 26 26 27 28 29 27
5 5 5 6 6 6 6 7 7 7 7 6 6 6 7 7 7 7 7 7 7 7 11 14 15 16 16 16 16 15 16 15 14 14 12 14 16 15 18 18 16 15 17 24 27 26 25 23 24 25 25 25 26 26
6 6 6 6 6 6 6 6 6 6 6 6 6 7 7 7 7 8 8 8 8 8 10 12 16 18 18 17 17 17 17 16 15 10 11 14 17 17 15 16 17 17 19 22 22 24 22 22 22 22 23 24 25 26
6 6 6 6 6 6 6 6 6 6 6 6 6 6 6 7 7 8 8 9 9 9 8 9 12 16 18 18 18 17 17 16 14 10 14 15 15 14 15 15 16 17 20 21 22 21 20 20 16 18 20 21 23 24
6 6 6 6 6 6 6 6 6 6 7 7 7 7 6 6 7 9 9 8 8 8 7 8 13 15 18 18 17 18 16 15 13 12 16 14 14 14 14 14 16 17 17 19 20 21 20 19 16 14 15 17 20 21
6 6 6 6 6 6 6 6 7 7 7 7 7 7 8 8 12 9 8 7 6 6 7 8 10 12 20 14 15 19 19 18 18 18 15 14 14 13 13 13 14 15 15 16 17 18 17 17 16 15 15 16 18 21
6 6 6 6 6 6 6 6 6 7 8 8 8 9 11 13 10 10 8 8 7 9 8 11 16 14 16 17 21 20 21 19 17 14 13 14 12 12 13 13 14 14 14 14 14 14 15 14 14 15 15 15 19 18
6 6 6 7 7 6 6 6 6 7 9 10 12 12 12 11 12 12 11 10 10 11 14 15 15 16 20 16 18 19 15 18 15 14 14 13 13 13 13 13 14 14 14 13 13 15 15 15 15 16 17 18 19 22
7 7 7 7 7 6 6 6 6 8 9 8 7 8 10 12 12 12 12 12 12 12 15 13 15 17 19 19 17 18 18 15 17 14 13 13 13 13 14 14 14 14 15 15 16 17 17 19 21 21 21 21 21 21
8 8 8 8 7 7 6 7 7 7 8 9 9 11 11 12 11 11 11 11 12 14 15 15 16 19 19 14 15 15 19 17 19 15 13 12 13 14 14 14 14 16 18 17 17 17 18 21 21 21 21 21 21 21
8 9 9 8 8 8 7 8 8 8 9 11 10 9 8 10 11 13 14 14 15 17 17 17 18 17 18 20 20 20 20 18 16 13 13 13 13 14 16 17 18 19 20 20 20 21 20 21 22 21 21 21 20 20
9 10 9 9 9 9 8 9 9 10 11 9 9 9 10 11 12 12 16 19 19 20 20 19 20 19 20 20 19 18 18 13 13 14 14 13 14 15 17 19 20 20 20 20 21 21 21 21 22 21 20 21 21 20
9 11 10 10 9 10 10 10 12 12 12 12 12 14 15 15 18 18 18 19 20 20 21 17 19 18 17 15 14 15 14 11 11 13 14 14 15 17 17 17 19 20 20 20 20 21 21 21 21 21 21 21 20 20
10 12 10 9 10 11 11 12 15 16 16 16 15 18 17 17 17 18 18 19 20 21 20 20 16 15 15 14 12 11 10 10 12 13 13 13 15 17 17 18 19 20 21 21 20 20 20 21 21 20 20 20 21 20
10 10 9 9 9 11 14 15 17 17 16 17 17 17 17 18 17 18 18 19 19 19 20 18 18 16 14 13 12 13 13 12 13 14 15 16 16 17 17 17 18 18 19 20 20 20 20 20 21 21 21 21 20 21
8 8 9 9 8 9 15 16 16 16 17 17 17 18 18 18 18 19 19 19 20 20 20 18 16 14 14 15 15 15 16 15 15 15 16 17 17 17 18 18 18 18 18 19 20 20 20 20 20 20 20 21 21 21
9 9 9 11 10 14 16 16 16 16 16 17 18 18 18 18 19 19 20 20 20 19 18 17 17 17 17 17 17 16 16 16 15 16 16 19 18 18 18 19 20 19 19 19 19 18 19 19 19 19 19 19 20 20
11 10 10 12 13 14 16 15 16 16 16 17 18 18 17 18 17 16 16 19 18 17 16 15 15 14 15 15 15 14 15 16 15 16 17 18 19 19 19 19 19 19 19 19 19 19 18 18 17 18 18 18 18 18
10 8 11 13 14 14 15 14 14 15 14 16 16 16 14 14 15 14 15 15 13 12 12 13 14 14 15 15 15 16 15 15 15 14 14 15 17 17 17 17 17 18 18 17 17 18 17 16 16 16 17 16 17 17
8 9 13 13 13 12 14 16 15 14 14 15 16 15 15 15 14 15 12 12 13 12 14 14 14 15 17 17 17 17 17 18 19 18 17 18 17 17 18 18 17 17 17 17 17 16 16 15 16 15 16 16 16 16
8 10 12 13 15 14 17 17 17 17 17 17 15 14 16 16 16 15 14 14 14 16 18 18 18 19 18 18 18 17 16 17 19 19 18 19 19 18 17 17 17 16 15 15 15 15 15 15 15 15 15 15 15 15
11 10 14 11 16 17 18 18 18 18 17 18 17 17 17 17 16 15 14 14 18 17 18 18 18 18 17 17 17 16 15 16 17 18 16 16 17 18 18 17 15 14 13 13 14 13 14 14 14 14 14 14 13 13
13 16 13 18 19 19 19 18 18 19 19 19 19 20 20 18 17 15 14 15 16 17 17 17 17 17 17 16 16 15 15 15 15 16 15 15 14 14 15 15 15 13 11 11 11 12 12 12 12 12 13 13 12 11
16 19 19 18 18 19 19 20 20 20 19 18 20 20 19 16 13 13 14 15 14 15 15 15 15 15 15 15 15 14 14 14 14 14 15 14 13 11 11 12 11 9 9 9 9 9 9 8 9 9 10 10 10 10
19 19 18 20 20 21 19 20 20 19 19 20 18 17 16 14 11 12 13 12 12 11 11 12 13 14 15 14 14 14 14 13 13 13 14 14 12 11 9 9 9 7 8 7 7 7 6 6 6 7 7 8 8 8
21 22 21 20 21 20 20 19 18 20 19 19 17 15 12 10 9 10 10 10 10 9 9 13 14 14 14 14 14 13 13 11 11 12 12 12 12 10 8 8 8 7 7 7 6 5 4 5 5 5 6 7 7 6
21 23 21 20 19 18 19 20 19 18 17 15 12 10 9 8 7 8 9 10 12 14 14 14 14 13 12 12 12 11 11 10 8 8 9 9 9 7 7 7 6 6 6 6 6 6 5 5 6 6 6 5 5 4
23 22 21 19 19 19 19 18 17 16 15 13 12 10 10 11 10 12 13 14 14 14 13 13 13 12 11 11 10 9 10 8 6 5 4 5 5 5 5 5 5 5 5 5 5 6 5 5 5 5 4 4 4 4
22 22 21 20 20 20 19 16 16 16 16 15 14 14 14 11 11 14 12 12 13 13 12 11 11 10 9 9 8 8 6 7 5 4 3 2 3 3 4 4 4 4 4 5 5 5 5 4 4 4 3 3 3 3
23 22 22 21 21 21 21 17 16 16 16 17 16 15 16 15 13 14 13 11 11 11 11 10 10 9 8 7 7 7 7 5 3 2 1 1 0 1 2 3 3 4 4 4 4 4 3 3 3 3 3 3 2 3

GFSWCAN_925_temp_006.txt.gz
Temp
6 6 6 5 6 6 6 6 6 6 6 6 6 6 7 7 7 7 8 7 6 6 8 10 13 13 13 11 9 11 9 15 18 17 17 17 17 20 22 25 26 26 26 28 29 29 28 33 29 30 30 32 32 33
6 6 6 6 6 6 6 6 6 6 6 6 6 6 7 7 7 6 7 8 7 7 9 10 11 13 14 14 15 14 11 10 12 16 15 15 17 19 21 22 27 26 28 28 29 30 31 31 30 31 32 31 31 31
6 6 6 6 6 6 6 7 7 7 7 7 6 6 6 6 6 6 7 7 6 7 10 13 13 14 14 13 14 15 16 15 15 11 12 13 14 16 18 23 24 28 23 28 29 30 30 31 31 31 31 28 27 26
6 6 6 6 6 6 6 7 7 7 6 6 6 6 6 6 7 6 6 7 7 7 8 12 14 15 17 17 16 16 16 16 16 15 14 14 14 15 15 16 19 18 19 22 28 28 28 28 29 29 28 28 27 25
6 6 6 7 6 6 6 6 6 6 6 6 6 6 7 7 7 7 7 7 7 6 8 11 14 15 17 18 18 17 16 16 15 14 13 12 14 14 15 15 15 17 17 18 21 26 25 25 26 26 27 27 27 25
6 7 7 6 6 6 6 6 6 6 6 6 6 7 7 7 7 8 8 8 8 7 7 12 17 17 18 18 18 18 17 17 17 14 13 11 13 13 15 15 16 16 18 18 15 18 21 24 24 25 25 25 26 26
7 7 7 6 6 6 6 6 7 7 6 6 6 7 7 7 7 9 9 9 8 9 9 10 12 18 17 19 19 19 18 18 17 13 11 11 13 14 15 15 15 15 16 15 16 16 19 21 20 23 23 24 24 25
7 6 6 7 7 7 7 7 7 7 7 7 7 8 7 7 7 9 10 9 8 8 8 8 11 12 16 18 18 20 18 17 13 12 11 13 13 13 14 14 15 14 15 16 16 19 18 19 18 18 20 22 22 22
7 7 7 7 7 7 7 6 6 6 8 8 8 8 8 8 11 10 9 8 7 7 7 9 9 11 11 11 13 18 17 14 13 11 12 13 13 13 13 13 14 15 15 16 18 18 19 18 17 17 17 17 18 18
7 7 7 7 8 7 7 6 6 6 9 10 10 12 11 12 11 9 7 8 7 7 8 10 14 12 10 13 17 18 19 17 13 12 13 13 12 12 12 13 14 14 15 17 17 16 17 17 17 16 16 15 15 15
8 8 8 8 8 8 8 6 6 8 10 11 13 13 12 11 12 10 10 9 10 10 11 14 14 14 12 13 16 17 16 17 15 13 14 13 12 12 12 13 14 13 13 14 15 17 16 14 14 14 15 15 14 15
8 9 9 9 9 8 8 7 7 9 11 9 8 9 10 12 11 10 9 10 10 9 11 14 16 18 17 19 14 14 14 16 14 14 13 13 12 12 13 13 14 14 15 15 15 15 16 17 20 20 20 19 17 18
9 9 9 10 9 8 8 9 9 8 8 10 10 12 12 12 11 11 11 9 11 12 16 17 16 13 14 14 13 13 15 14 14 14 13 12 12 12 13 16 16 16 17 17 18 18 18 20 21 21 21 21 21 21
10 10 10 10 9 10 9 10 10 9 9 13 12 11 10 11 10 11 12 13 15 13 15 19 19 12 11 13 14 14 16 15 15 14 13 12 12 13 14 15 17 16 16 19 19 20 21 21 19 20 20 21 20 19
10 11 11 10 10 11 11 11 10 10 12 13 14 12 14 15 16 15 17 17 15 17 18 21 21 20 17 17 16 16 15 13 12 14 13 13 13 16 17 16 17 19 20 21 21 21 20 21 20 19 19 18 18 18
9 12 11 12 11 12 13 13 12 14 15 15 16 17 18 18 18 19 20 20 22 19 20 21 19 18 16 14 13 12 12 11 11 13 13 13 15 13 14 14 16 20 21 20 20 21 21 19 18 21 20 20 20 20
9 12 11 11 11 13 14 13 17 18 18 17 17 19 19 18 16 18 18 20 21 21 19 18 15 15 15 12 11 11 11 11 12 12 12 13 13 14 16 16 15 14 17 19 20 18 18 19 20 20 20 19 19 20
10 11 10 10 9 12 16 17 18 19 18 19 17 18 19 19 19 18 20 20 20 20 20 18 18 14 12 12 13 12 12 13 13 13 13 14 15 16 16 17 17 18 17 16 16 17 20 19 19 18 19 19 19 19
8 9 10 11 9 9 18 18 17 17 18 18 19 19 18 19 18 20 21 21 21 21 20 19 16 14 14 14 14 14 14 14 14 15 15 16 17 17 17 17 18 19 19 18 17 19 20 20 20 20 20 20 19 20
11 11 11 12 11 15 18 17 18 18 17 17 19 18 18 17 19 20 20 20 20 18 17 15 14 14 14 14 14 14 14 15 15 16 16 18 19 19 19 18 19 19 19 19 19 18 19 19 19 19 19 19 19 19
13 12 13 14 15 16 17 17 17 17 16 16 18 18 16 17 16 15 15 17 16 13 13 14 14 15 16 16 16 16 16 17 15 15 17 18 19 18 18 19 18 18 19 19 19 19 18 17 17 17 18 18 18 18
12 11 13 15 16 17 17 17 17 17 16 18 18 18 16 16 16 15 16 16 14 14 14 14 15 18 17 16 16 17 16 16 16 16 17 17 18 18 18 18 18 18 18 18 18 18 17 16 16 16 17 16 17 17
11 11 15 16 16 13 15 17 17 18 17 17 17 17 16 16 16 18 16 15 15 15 16 17 17 17 18 17 17 16 17 18 19 19 19 18 19 19 19 19 19 18 18 17 16 16 16 16 15 16 16 16 16 16
10 13 15 16 18 15 20 19 19 19 19 19 18 16 16 16 17 16 14 15 17 18 18 17 18 18 18 17 18 17 16 17 18 17 17 18 18 17 15 16 16 15 15 15 15 14 14 15 15 15 15 15 15 15
13 13 15 11 19 19 20 19 20 20 19 20 19 18 17 18 17 15 14 15 15 15 16 17 17 18 17 17 17 16 16 16 17 17 16 16 16 16 16 14 13 12 12 13 12 12 13 12 12 13 13 13 12 13
12 19 14 20 20 20 19 19 20 20 20 20 20 20 14 14 16 13 13 14 15 16 16 16 16 16 16 16 17 17 16 15 15 16 16 15 14 14 14 14 13 11 10 11 10 10 11 10 10 10 11 11 11 11
16 19 21 22 21 21 20 19 21 20 18 17 19 18 18 14 12 12 13 12 13 13 14 14 14 16 16 16 16 15 15 14 14 14 15 14 12 12 11 11 10 9 9 9 9 9 8 8 8 8 9 9 9 9
15 19 13 11 16 19 15 20 20 18 19 20 18 16 16 13 10 11 11 12 13 13 13 14 15 16 16 15 15 15 14 13 12 13 14 13 12 11 10 10 9 8 8 7 7 7 7 7 7 8 8 8 8 8
21 18 19 20 21 21 21 19 19 19 19 19 17 15 12 11 11 13 13 13 13 14 15 16 16 15 14 14 14 13 12 11 10 10 10 11 11 10 9 8 8 8 8 8 6 6 6 6 7 7 7 7 7 6
23 23 21 19 20 19 19 19 19 19 18 15 14 13 12 12 13 13 13 15 16 16 15 15 14 14 13 13 12 11 11 9 7 7 7 8 8 7 7 7 7 7 7 7 8 8 7 7 7 7 6 6 6 5
24 24 23 21 20 21 21 20 18 18 18 17 16 16 15 14 14 14 14 14 14 14 14 14 13 12 11 11 11 10 10 9 7 6 4 5 6 6 6 6 6 6 6 7 7 7 6 6 6 6 5 5 5 5
24 23 23 22 21 21 21 20 19 18 18 17 16 15 15 13 13 14 14 14 14 13 13 12 12 12 10 9 9 9 8 7 5 4 4 4 4 4 5 5 5 5 5 6 6 6 5 5 5 4 5 5 5 4
24 24 23 23 23 22 21 20 18 18 18 18 17 18 17 16 14 15 14 13 12 12 11 11 11 11 10 9 8 8 7 5 4 3 3 3 3 2 3 3 3 4 4 5 5 5 4 4 5 5 4 4 4 4

GFSWCAN_925_temp_009.txt.gz
Temp
6 6 6 6 6 6 6 6 7 7 7 6 6 6 6 7 7 7 8 7 6 6 7 8 10 10 11 11 10 11 9 9 9 12 15 14 15 16 17 18 19 17 17 23 25 26 27 27 28 29 25 27 27 26
7 7 7 6 6 6 6 7 7 7 7 7 6 6 6 6 6 6 7 8 7 6 7 8 8 9 10 12 12 8 9 8 8 11 13 14 16 15 15 16 20 17 18 18 22 23 25 26 25 25 24 23 24 23
7 7 7 7 6 6 6 6 6 6 7 6 6 6 6 6 6 6 6 7 6 7 8 10 10 12 12 11 12 11 12 10 9 10 10 12 13 15 15 16 17 21 19 21 22 25 25 23 26 23 22 22 23 22
7 7 7 7 7 7 7 7 6 6 6 6 6 6 6 6 6 6 7 7 6 6 6 9 12 13 13 14 13 12 13 14 11 9 10 11 12 13 14 14 15 17 17 18 19 22 22 21 21 24 23 23 22 22
7 7 7 7 7 7 7 7 7 7 7 6 6 6 6 6 7 7 7 8 8 6 7 8 9 12 14 14 15 15 14 14 13 12 12 12 13 13 14 14 14 15 16 17 18 16 17 20 21 22 22 22 22 21
7 7 7 7 7 7 7 7 6 6 6 6 6 6 6 6 6 7 7 8 8 8 6 8 13 14 15 16 17 16 15 14 15 12 12 12 12 12 13 14 15 14 15 16 17 16 17 19 20 22 22 22 22 22
7 8 8 8 8 8 7 7 7 6 6 6 6 6 7 7 6 8 9 9 9 8 7 8 11 12 13 15 16 16 16 15 15 12 12 12 11 11 13 13 15 14 15 16 16 17 16 16 17 19 20 21 20 21
8 8 8 8 8 8 8 8 7 7 7 7 8 8 8 8 7 7 10 10 9 8 7 7 10 11 10 12 16 16 16 14 12 12 11 10 11 12 13 13 14 14 15 15 15 15 14 14 15 17 18 19 18 18
8 9 9 9 9 9 9 8 7 7 9 9 10 10 8 8 10 11 9 9 8 8 7 8 9 9 10 11 12 11 13 12 11 11 10 11 12 13 13 12 13 14 14 15 14 15 16 15 14 15 16 16 16 16
8 9 9 9 9 10 9 8 8 7 10 11 11 11 11 11 11 9 8 8 7 7 7 8 11 10 10 11 12 12 13 11 11 10 12 12 12 12 12 12 12 12 13 13 14 15 15 15 15 14 15 15 15 16
8 9 9 9 9 10 9 8 8 8 11 12 12 12 11 11 10 9 9 8 9 8 9 11 12 11 12 12 12 13 13 12 12 12 13 12 12 12 12 12 12 12 13 13 14 14 14 15 15 15 15 15 15 15
8 9 9 10 10 10 10 9 8 8 9 8 8 8 9 11 11 9 9 8 8 9 9 11 12 11 12 10 12 12 13 13 13 13 13 11 11 11 12 13 12 12 13 14 15 15 15 15 15 15 16 18 17 17
8 9 10 10 10 10 10 10 10 9 10 10 9 12 11 11 10 10 10 8 9 11 13 13 12 11 12 12 12 12 12 13 13 13 11 11 12 12 12 12 13 13 13 15 15 16 17 18 19 19 18 18 19 19
9 9 10 10 11 11 11 11 11 10 10 12 12 9 12 12 11 11 13 11 11 12 12 13 12 12 11 12 12 14 15 15 14 13 11 11 11 12 12 12 13 14 15 15 15 16 15 17 18 17 18 18 18 17
8 10 10 11 11 12 13 13 12 11 12 14 14 9 15 17 17 17 18 14 12 14 15 16 15 15 13 14 13 14 13 12 12 13 12 12 12 13 14 15 15 14 15 15 18 17 17 18 17 17 18 19 19 19
9 10 10 11 12 14 14 14 13 12 15 15 16 16 17 15 16 17 18 18 19 19 18 17 16 15 13 12 11 11 12 11 11 12 12 12 13 13 13 14 14 15 17 16 15 17 17 17 17 17 18 18 18 19
9 9 11 11 11 14 15 14 16 17 18 16 16 18 14 14 15 16 19 19 19 18 16 16 14 13 12 10 10 11 11 11 12 12 12 12 13 13 12 13 13 14 14 14 14 15 16 18 19 17 17 18 18 18
8 10 11 11 10 12 14 16 17 18 17 15 15 17 17 14 14 17 18 18 18 17 17 16 16 13 12 12 13 12 12 12 11 12 12 13 14 14 14 14 16 15 14 15 15 16 17 17 17 16 17 18 18 18
9 11 12 12 10 8 15 18 17 17 17 16 16 17 17 14 15 16 17 17 17 17 16 15 14 13 12 13 13 13 12 12 12 12 13 14 14 13 14 15 17 16 16 16 17 17 16 16 16 17 18 17 17 17
12 12 13 14 12 13 18 17 18 18 16 15 15 15 15 15 16 17 16 16 16 15 14 13 13 13 13 13 13 13 13 13 13 13 14 15 16 16 16 17 16 18 17 18 17 17 16 16 16 16 17 17 16 16
12 13 14 15 14 15 17 16 17 16 15 15 16 16 14 16 16 16 15 16 15 14 13 13 14 15 14 14 14 15 14 14 14 14 15 16 16 17 17 17 18 17 17 17 16 15 15 15 15 16 16 16 16 16
13 12 12 16 17 17 17 18 17 17 16 16 17 17 15 15 15 16 16 15 14 13 14 14 14 16 15 13 14 14 14 16 17 17 17 17 16 16 16 18 17 16 15 15 15 15 15 15 15 15 16 16 16 15
11 12 14 17 17 12 13 18 18 18 17 18 18 17 15 15 15 17 15 14 14 15 16 16 16 16 15 16 15 15 15 16 15 16 16 16 15 15 15 14 13 13 13 13 13 13 13 13 13 13 14 14 14 14
12 13 15 16 17 14 19 18 18 19 19 19 17 16 15 15 16 15 14 14 15 15 15 14 15 15 16 16 15 14 15 15 16 16 16 15 15 14 13 12 11 11 12 12 11 12 11 11 11 10 11 11 11 11
12 12 14 9 16 18 19 20 20 20 19 20 18 15 12 11 13 14 14 13 13 13 14 15 15 15 15 15 16 15 15 14 14 14 15 14 14 14 13 11 10 10 10 10 10 10 10 9 9 9 10 10 10 10
11 17 14 17 17 17 17 18 19 19 19 19 17 13 13 13 15 13 12 12 12 13 14 13 14 15 15 15 15 15 14 13 13 13 13 12 12 11 11 10 9 9 9 9 9 9 8 8 8 9 9 9 9 9
13 13 13 12 12 14 18 18 20 20 19 18 18 17 17 13 12 13 13 13 13 14 14 15 15 15 15 15 15 14 12 11 11 11 12 11 10 10 10 9 8 8 8 8 8 7 7 7 8 8 8 8 7 7
14 13 14 15 16 19 19 19 19 18 18 19 19 16 15 13 12 13 13 13 14 14 15 15 15 15 14 14 13 12 11 10 9 9 10 10 9 9 9 9 8 8 7 7 7 7 7 7 7 7 7 7 7 6
18 19 17 17 20 20 20 19 18 17 17 17 16 14 13 13 13 15 14 14 15 15 15 15 14 14 13 13 12 11 9 8 8 7 7 8 8 8 8 7 8 7 7 8 7 7 7 7 7 6 6 6 6 5
22 23 22 21 20 19 19 20 18 18 17 15 14 14 14 14 14 14 15 15 15 15 14 14 14 13 12 12 11 10 8 7 6 6 6 6 7 7 7 7 7 7 7 7 8 7 6 6 6 6 6 5 5 5
25 24 23 22 21 21 20 19 19 18 18 17 17 16 15 15 14 14 14 14 14 13 13 13 13 12 11 10 10 10 9 6 5 5 5 5 5 5 5 5 5 6 6 6 6 6 5 5 5 5 5 5 5 5
24 23 23 22 21 21 21 19 18 19 18 18 16 16 16 14 13 14 14 14 13 13 12 12 12 11 10 10 9 8 7 6 5 4 4 4 4 4 4 4 4 4 5 6 6 5 5 5 5 5 5 4 4 4
24 24 23 23 22 20 21 20 19 19 19 17 17 16 16 16 14 15 14 13 12 11 11 11 11 10 9 8 8 8 6 5 5 5 4 4 4 4 3 3 3 4 4 5 5 5 5 4 4 4 4 3 3 3

GFSWCAN_925_temp_012.txt.gz
Temp
7 7 7 7 7 7 7 7 6 6 6 6 6 6 6 6 6 6 7 7 7 5 7 7 8 8 7 7 7 8 8 8 7 9 10 11 11 13 14 16 15 15 16 18 20 20 22 24 25 29 24 23 23 23
7 7 7 7 7 7 7 7 7 7 6 6 6 6 6 6 6 6 6 7 7 6 7 8 8 8 8 8 6 7 9 8 8 9 9 10 13 12 12 14 15 15 15 17 19 18 19 20 22 21 20 20 20 20
7 7 7 7 7 7 7 7 7 7 7 6 6 6 6 6 6 6 6 6 6 6 6 6 6 10 9 8 9 8 8 9 8 7 8 9 11 12 13 13 16 15 16 17 19 20 17 18 20 20 20 20 20 20
7 7 7 7 7 8 8 7 7 7 7 6 6 6 6 6 6 6 6 6 6 6 6 8 10 9 11 11 10 9 10 10 9 7 8 7 10 12 12 14 13 16 16 17 17 17 17 18 18 19 20 20 20 19
7 7 7 8 8 8 8 8 8 7 7 7 6 6 6 6 6 6 7 7 7 6 7 7 8 9 12 12 10 11 10 10 9 7 9 10 11 11 12 13 13 15 15 16 17 15 15 16 17 18 19 19 19 18
7 8 8 8 8 8 9 9 9 8 7 6 6 6 6 7 7 6 5 8 8 7 6 6 7 9 11 12 12 11 11 12 10 9 10 12 11 11 11 13 14 14 14 14 16 15 15 16 17 18 18 19 19 19
8 8 8 8 8 8 9 9 9 8 7 7 6 6 6 7 6 5 6 8 7 7 6 8 6 9 10 9 10 10 11 10 12 10 11 11 11 10 11 13 13 13 14 15 15 15 16 15 14 16 17 18 18 19
8 8 8 8 9 9 9 9 9 8 8 8 8 9 9 8 7 6 9 9 8 7 7 7 8 9 9 9 11 10 12 11 9 10 10 10 10 10 12 13 13 13 14 15 14 15 15 15 15 15 16 16 17 16
8 8 8 9 9 9 10 10 9 8 9 10 11 10 9 7 6 9 9 8 8 7 7 7 8 9 9 10 10 10 10 10 10 10 10 10 12 12 12 12 13 13 14 14 14 14 15 14 14 13 14 15 15 15
8 8 8 9 9 10 10 10 9 10 11 11 11 10 8 10 9 8 8 7 6 7 7 7 8 9 8 10 10 10 10 10 9 10 10 10 11 11 11 12 12 13 13 14 14 14 13 14 13 14 14 13 14 14
8 8 8 9 10 10 11 10 9 9 10 9 7 8 10 9 9 8 9 8 8 8 7 8 8 8 10 11 11 11 11 10 10 11 12 11 11 11 12 12 12 13 13 13 13 13 13 14 14 14 14 15 15 15
8 9 9 9 10 11 11 10 10 9 9 8 7 7 8 8 9 9 6 7 7 8 9 9 11 11 11 10 10 11 11 12 12 13 11 11 11 12 12 12 12 12 12 13 13 13 14 14 14 15 16 16 16 16
9 9 9 10 11 11 11 11 11 11 10 9 8 8 8 9 10 9 9 9 10 10 11 11 11 10 11 11 11 11 12 12 13 11 10 10 11 11 11 12 12 13 13 14 15 16 16 16 16 16 16 17 17 17
9 9 10 10 11 11 12 12 12 12 10 9 10 10 10 11 12 11 13 13 11 11 11 11 12 11 11 12 11 14 13 12 12 11 10 11 11 11 11 12 12 13 13 14 14 16 16 15 16 16 17 17 17 16
9 9 10 11 11 12 13 14 14 12 11 10 11 10 11 11 12 14 15 15 15 12 12 13 12 13 12 12 11 12 12 11 11 12 12 12 12 12 12 13 13 13 13 13 14 14 15 15 15 15 16 17 17 17
9 11 11 11 12 14 15 15 14 13 12 12 12 12 12 12 13 15 15 15 15 16 13 12 13 12 11 11 11 11 11 11 12 12 12 11 12 11 12 13 13 13 14 14 14 14 14 16 16 16 16 16 16 16
10 11 11 11 12 16 16 15 14 13 13 13 12 11 11 11 11 13 14 14 16 16 15 13 13 12 11 10 11 11 11 12 12 12 11 11 11 11 12 13 12 13 13 15 15 15 15 15 15 16 15 15 17 16
10 12 12 12 11 14 16 15 14 14 14 12 10 11 10 11 11 13 14 15 14 14 13 13 13 12 12 11 12 12 11 11 11 11 11 11 12 12 13 12 12 14 14 14 14 15 15 15 14 14 14 15 15 16
12 13 13 12 11 11 10 15 15 14 13 11 10 11 11 11 12 13 14 14 14 13 12 12 12 12 11 11 11 12 12 12 12 12 11 11 13 13 13 14 14 14 14 14 14 13 13 13 13 13 14 14 12 12
13 14 14 14 14 13 13 12 16 13 14 13 11 12 11 11 11 12 13 14 12 12 13 11 11 11 10 10 10 11 11 11 12 12 13 13 14 15 15 15 14 14 13 13 13 13 12 13 13 13 14 12 11 10
13 14 15 15 15 14 13 12 12 12 12 12 12 12 11 11 12 12 13 10 14 13 11 9 10 10 10 12 13 13 11 11 9 10 10 11 12 12 13 12 13 12 12 11 10 10 10 10 11 11 11 11 10 10
12 13 14 15 15 14 13 15 12 12 12 12 12 11 11 11 11 11 11 13 12 10 11 9 9 10 11 11 11 13 12 13 14 13 13 13 11 10 11 10 11 10 10 10 10 9 9 9 10 10 10 10 10 10
12 12 13 14 15 9 12 15 14 13 14 13 13 14 13 12 11 11 10 10 11 11 11 11 11 13 12 13 13 13 13 12 10 11 11 11 10 10 10 10 10 9 9 9 9 8 8 8 9 9 10 10 9 9
12 11 12 13 12 11 14 15 14 14 16 13 12 12 12 11 11 11 11 11 9 11 11 10 11 10 11 12 8 10 12 12 12 11 11 10 9 8 8 8 8 9 8 8 7 7 7 8 8 9 9 9 8 7
10 12 11 8 12 13 16 15 16 15 15 13 12 11 11 10 12 12 12 9 10 9 9 11 11 10 9 8 9 10 11 11 10 9 9 10 9 9 8 8 8 8 8 7 7 7 7 7 8 8 7 7 7 6
10 13 12 13 12 12 14 15 16 16 16 16 14 11 11 12 13 10 9 8 8 9 9 10 10 10 9 10 8 8 8 9 10 8 9 9 8 8 6 5 5 7 8 7 7 7 7 7 7 7 6 6 6 6
11 13 12 11 11 12 13 14 15 14 15 16 15 14 14 13 11 9 9 10 9 12 14 13 13 12 9 10 9 9 8 9 9 8 8 8 8 8 8 7 6 7 7 7 7 7 7 7 6 6 6 6 6 6
13 12 13 14 13 13 17 16 15 14 13 13 13 13 13 12 10 9 9 13 14 13 14 13 12 12 11 9 8 8 8 8 8 8 8 7 7 7 7 7 7 7 7 7 7 7 7 7 6 6 5 5 5 5
14 13 13 15 15 16 16 16 15 13 12 12 12 11 10 10 11 12 14 14 14 13 13 12 11 11 10 8 7 7 7 6 6 4 4 3 4 5 6 6 6 6 6 6 6 6 6 6 5 5 5 5 5 5
17 15 15 17 18 17 16 14 14 13 12 11 10 10 10 10 13 14 14 14 13 12 12 12 11 10 9 7 6 5 5 5 5 4 2 2 4 4 5 5 5 5 5 5 5 5 5 5 5 5 5 4 4 4
18 18 18 18 18 16 15 15 16 15 13 12 12 11 10 10 14 14 13 13 12 12 11 11 10 9 9 8 7 5 4 5 5 5 4 4 4 4 4 4 4 4 5 5 5 5 5 5 4 4 4 3 3 3
20 20 19 19 17 16 15 14 14 14 14 14 14 12 12 11 11 11 13 12 11 10 10 10 9 8 8 8 7 7 6 5 5 5 4 4 4 4 3 3 3 3 4 4 4 4 4 4 4 3 3 3 3 3
20 19 20 19 17 17 16 14 14 14 14 15 13 13 12 11 12 10 11 11 11 10 10 9 9 8 7 7 7 6 6 6 5 5 5 4 4 4 4 3 3 3 3 3 3 3 3 3 3 3 3 3 3 2

GFSWCAN_925_temp_015.txt.gz
Temp
7 7 7 7 7 7 7 7 7 7 7 6 6 6 6 6 6 6 6 6 6 6 7 8 8 7 7 6 7 6 7 7 6 9 9 9 9 11 12 13 14 15 16 15 17 18 18 19 20 20 19 18 23 23
7 7 7 7 8 8 8 7 7 7 7 7 6 6 6 6 6 6 6 6 6 6 6 7 7 8 8 8 7 6 7 7 7 7 7 7 9 10 10 12 13 14 16 15 18 18 18 19 19 18 18 18 19 20
7 7 7 8 8 8 8 7 8 8 7 7 6 6 6 6 6 6 6 6 6 5 7 7 6 8 7 7 8 7 9 8 7 8 8 8 9 10 10 11 13 15 13 16 17 19 18 18 18 18 18 18 18 18
8 7 8 8 8 8 8 8 8 7 7 8 7 6 6 6 7 6 6 6 6 6 6 6 9 8 10 10 7 7 8 9 8 8 8 7 8 9 10 11 10 11 13 16 16 17 18 17 17 17 17 18 18 17
8 8 8 8 8 8 8 8 9 8 8 8 7 6 6 6 7 7 6 6 6 6 7 7 8 9 11 9 8 7 7 8 8 8 8 9 9 10 11 9 11 13 15 15 16 16 17 15 15 17 17 17 17 17
8 8 8 8 9 8 8 9 9 9 9 8 7 7 7 7 7 6 5 8 7 5 6 6 5 6 9 10 8 7 8 8 9 9 7 8 10 9 10 9 13 13 13 13 15 14 15 14 15 16 17 17 17 17
8 8 9 9 9 9 9 9 9 10 9 8 7 7 7 7 6 6 6 7 7 6 6 7 8 7 10 8 8 8 8 7 9 7 8 9 10 9 9 10 13 13 12 13 15 14 14 15 14 14 16 16 17 18
8 9 9 9 9 9 9 10 10 10 10 10 10 10 9 7 7 7 8 6 6 6 6 7 8 8 9 8 10 9 9 10 9 10 10 10 10 9 10 11 12 12 13 13 14 14 15 14 13 13 14 16 15 15
8 8 9 9 9 9 10 10 10 10 10 10 10 10 8 7 6 8 8 7 6 6 6 7 7 9 9 9 9 10 10 10 10 10 10 9 9 10 11 11 11 13 13 14 14 13 15 14 14 14 15 15 15 15
8 9 9 9 9 10 10 10 10 10 11 11 10 10 8 9 8 8 7 7 6 6 6 6 7 7 8 9 10 10 10 10 9 9 10 8 8 10 10 11 12 13 14 14 14 14 14 14 14 13 14 13 14 15
9 8 9 9 10 10 10 10 10 10 11 9 6 7 9 9 8 8 8 8 7 7 7 7 7 7 9 10 10 10 8 9 9 10 10 9 9 11 12 12 12 13 13 12 12 12 13 13 14 13 14 14 15 15
9 9 9 10 10 10 11 11 10 8 8 7 6 7 7 7 9 9 8 7 6 8 8 9 10 9 10 10 10 10 10 9 12 12 10 10 10 11 12 12 13 13 13 13 13 13 13 14 14 15 15 15 16 16
9 9 9 10 10 11 11 12 12 11 9 8 7 8 8 9 11 9 9 11 12 10 10 11 12 10 10 11 11 10 13 13 12 10 9 9 10 11 11 12 13 13 14 14 14 13 13 14 15 15 15 16 16 16
10 10 10 11 11 11 11 14 14 12 11 8 9 10 10 11 11 11 12 12 13 11 12 11 12 11 11 11 12 13 12 11 11 11 11 11 12 12 12 13 13 12 13 13 14 14 14 14 14 15 15 16 16 15
10 11 12 11 11 12 15 15 14 13 12 11 10 9 11 11 11 13 14 13 13 14 12 11 12 12 10 11 11 11 12 11 11 12 12 12 12 12 12 12 12 13 13 13 14 14 13 13 15 15 15 15 14 15
10 12 12 12 13 16 16 16 15 14 11 12 12 12 11 11 12 13 13 12 13 14 12 12 12 11 11 11 11 11 10 11 12 12 12 11 11 11 12 12 12 12 14 14 13 14 14 14 14 14 15 14 14 14
11 12 12 12 15 17 16 16 15 12 11 13 12 10 9 9 9 12 13 13 14 13 13 12 12 12 11 11 11 11 12 12 12 12 11 11 11 11 12 12 12 11 12 14 14 13 13 13 13 13 12 12 13 13
12 13 13 13 14 16 17 16 13 14 13 10 10 10 9 9 10 12 12 13 12 11 11 12 12 12 12 12 12 11 11 11 11 11 11 11 10 10 11 11 12 11 11 11 12 12 11 11 11 10 10 12 11 10
12 14 14 14 14 13 11 14 14 14 13 10 10 10 9 9 10 11 12 13 14 12 9 10 11 10 10 10 10 11 11 11 11 11 10 10 11 11 10 11 11 11 10 9 10 10 10 10 10 10 10 9 8 8
14 14 14 14 14 14 13 11 14 12 12 11 10 10 10 10 9 10 12 12 10 9 11 10 10 10 9 9 9 9 9 8 10 10 10 10 11 10 10 10 9 9 9 9 8 8 9 9 9 9 8 8 7 7
14 14 15 14 14 14 11 11 11 11 10 12 10 10 10 9 10 10 11 10 11 10 9 7 9 10 10 11 11 11 9 8 7 7 7 8 10 10 9 8 8 8 8 7 7 7 7 6 8 9 8 7 6 6
12 13 14 14 13 12 11 12 11 10 11 12 11 10 10 10 9 9 8 8 9 9 8 7 7 7 8 8 9 10 10 10 10 9 9 9 8 8 8 8 7 7 6 6 6 6 6 7 8 8 7 7 6 6
12 12 13 13 14 10 12 12 13 13 12 12 11 12 12 12 10 8 9 9 9 9 9 9 9 10 9 10 11 10 9 10 7 7 7 7 7 7 7 7 8 7 7 6 6 7 7 7 8 7 6 6 5 5
12 11 11 11 11 10 12 14 11 11 11 11 11 11 12 12 10 9 9 8 8 9 8 8 9 7 8 8 5 6 8 9 8 8 8 7 6 6 7 7 7 7 7 7 7 7 6 6 7 6 6 5 5 5
11 11 11 8 11 12 14 14 14 14 13 11 11 10 10 10 10 9 9 8 7 7 7 8 8 7 6 5 6 7 8 8 7 5 7 7 7 7 7 7 7 7 7 7 6 6 6 6 6 6 6 5 5 4
10 13 12 13 12 13 12 14 14 14 14 14 13 11 10 10 10 9 8 7 7 7 7 7 7 6 5 6 4 6 7 8 8 6 6 7 7 6 4 3 4 6 6 7 7 6 6 6 6 5 5 5 5 4
13 14 11 9 10 11 12 12 12 12 14 14 13 12 12 11 10 9 7 8 7 11 11 11 11 8 6 6 7 7 8 8 7 6 6 6 6 6 6 5 5 6 6 6 6 6 6 5 5 5 5 5 4 4
13 11 15 13 12 11 14 13 13 13 12 11 11 12 12 11 9 8 8 12 11 12 11 11 10 9 8 7 7 7 7 7 7 7 6 6 5 5 5 5 5 6 6 6 6 6 5 5 5 5 5 4 4 4
13 11 12 14 14 13 14 14 13 11 10 10 10 10 10 8 9 10 12 12 12 12 10 8 7 8 7 7 6 6 6 6 5 3 2 1 2 4 4 5 5 5 5 5 5 5 5 5 5 4 4 4 4 3
15 11 13 14 15 16 14 11 12 10 9 9 8 8 8 9 12 13 12 12 11 11 10 9 8 7 6 5 5 5 5 5 4 4 1 1 2 3 3 4 4 4 4 5 5 5 4 4 4 4 3 3 3 3
14 13 16 15 15 13 13 12 12 11 11 10 9 9 9 9 12 12 12 12 11 10 9 9 8 7 6 5 4 4 3 5 4 4 4 3 3 3 3 3 3 4 4 4 4 4 4 3 3 3 3 3 2 2
15 15 15 16 15 12 13 13 12 12 11 11 11 10 10 9 10 9 11 11 10 9 9 9 8 7 7 7 7 6 6 5 5 5 4 4 4 4 3 3 3 3 3 3 3 3 3 3 2 2 2 2 2 2
16 16 15 14 14 14 13 12 12 13 11 11 11 11 10 10 10 8 10 10 11 10 9 9 8 7 7 7 7 6 6 5 5 5 5 4 4 4 3 3 3 3 3 3 3 3 2 2 2 2 2 2 2 2

GFSWCAN_925_temp_021.txt.gz
Temp
8 8 8 8 8 8 8 8 9 8 9 8 7 6 6 7 7 6 6 6 6 6 7 7 8 8 8 7 6 9 9 9 8 9 10 10 10 13 13 15 15 15 14 14 15 16 16 22 23 23 23 22 22 22
8 8 8 8 8 9 8 8 9 9 9 8 6 7 7 7 7 7 6 6 6 5 6 8 7 7 8 9 8 6 8 8 9 8 9 8 10 11 12 12 15 14 15 16 17 18 19 20 20 21 20 21 21 21
8 8 9 9 9 9 8 8 9 9 9 9 7 7 7 7 7 7 7 6 5 5 7 8 9 9 7 7 8 7 8 9 9 10 8 9 9 10 10 12 13 15 15 14 16 18 18 19 20 21 20 20 20 20
8 8 8 9 9 8 8 8 9 9 9 8 7 7 7 7 7 7 7 7 6 5 6 8 8 8 8 8 7 8 9 9 9 8 7 7 8 10 10 12 11 13 13 14 15 16 17 19 20 20 20 20 20 19
8 8 8 8 9 8 7 8 9 10 9 9 7 7 7 7 8 7 7 7 6 6 6 7 8 9 8 8 7 8 8 9 8 7 7 8 8 8 10 10 10 13 13 13 15 17 15 16 18 19 19 20 19 18
8 9 9 9 9 8 7 9 10 9 9 9 7 7 7 7 7 7 7 7 5 6 6 7 9 9 9 8 8 8 8 8 7 7 8 8 11 9 9 10 13 14 14 14 14 15 14 16 16 18 19 19 18 18
9 9 9 9 9 8 9 10 9 9 9 8 7 7 8 7 7 7 7 7 6 5 6 7 8 10 10 9 8 7 7 7 6 6 7 8 10 9 9 9 12 14 14 13 14 13 13 15 16 19 17 18 16 17
9 9 8 9 9 9 10 9 10 9 9 7 7 8 9 7 7 7 7 6 6 6 5 6 8 8 9 10 10 8 7 7 7 7 8 10 10 9 9 10 12 12 10 10 11 12 12 14 16 14 15 17 16 18
9 8 9 10 10 10 10 10 10 9 8 7 8 8 7 7 7 7 7 6 6 6 5 5 7 9 8 9 9 9 7 7 8 7 9 9 9 10 10 10 10 11 10 11 13 13 14 14 15 14 14 15 16 17
9 10 10 10 10 11 11 10 9 7 8 9 8 9 10 8 7 7 6 6 6 6 5 5 4 6 6 8 9 9 10 9 9 8 8 8 8 9 9 9 9 10 10 11 10 12 13 14 15 14 14 15 16 17
10 10 11 11 12 11 11 10 10 7 10 8 8 10 7 8 8 8 8 8 7 6 5 5 5 6 7 8 9 9 8 7 9 9 8 8 8 9 11 13 13 13 12 14 14 14 12 12 14 14 14 15 17 17
10 11 12 12 12 11 12 12 11 10 7 7 7 7 7 10 10 11 10 9 8 9 9 8 9 7 8 8 10 9 8 7 10 10 9 9 8 9 11 11 11 11 12 13 14 13 13 13 14 14 14 14 14 15
11 12 13 12 12 13 14 14 12 11 8 8 9 11 11 11 9 10 9 9 11 12 13 11 12 11 11 11 11 11 12 11 11 10 9 8 9 9 9 10 10 10 10 10 10 11 12 12 12 12 12 12 13 14
11 13 14 13 13 15 16 16 14 13 12 12 11 9 11 10 10 9 9 10 11 12 12 11 12 11 11 12 12 12 12 11 12 10 9 9 8 8 9 9 9 9 10 9 10 10 11 10 10 9 9 10 12 11
13 14 14 14 16 17 17 17 17 15 12 13 12 10 12 12 12 12 11 11 13 14 13 12 13 13 12 13 11 11 13 11 9 9 9 9 8 8 8 9 9 9 8 9 9 9 9 9 9 8 8 9 10 10
14 14 14 15 16 17 18 17 17 15 13 14 13 12 13 13 13 13 12 12 14 13 14 15 14 14 13 12 11 11 10 11 11 10 9 9 8 8 8 9 9 10 10 10 9 9 10 10 10 9 9 9 9 9
15 14 14 15 17 18 18 17 16 13 14 14 13 12 11 11 11 13 13 13 13 15 14 14 11 11 12 11 10 11 10 9 9 8 8 9 8 8 9 9 8 9 9 9 10 10 10 11 10 10 9 8 8 8
14 14 14 15 16 17 17 16 15 15 14 12 13 13 13 12 12 13 13 13 14 13 13 12 12 9 9 9 10 9 10 10 9 9 8 8 8 8 8 9 8 8 9 9 10 9 10 10 11 11 10 9 9 9
14 15 15 15 15 15 14 14 14 14 14 14 13 12 12 12 13 13 14 13 12 12 13 12 12 10 10 10 10 10 11 11 10 9 10 9 8 8 8 9 9 9 9 8 9 10 9 8 9 10 10 10 9 9
14 14 14 14 15 14 15 14 12 15 15 14 12 14 13 13 13 14 14 13 13 13 12 12 11 11 10 11 10 10 10 10 11 12 11 10 9 9 8 8 8 9 10 9 9 8 10 9 8 7 7 8 8 8
14 14 15 14 14 14 14 14 14 13 13 14 12 13 13 13 13 13 13 13 13 11 11 10 11 11 9 9 9 9 10 10 10 10 10 11 10 9 9 9 9 9 9 9 9 9 8 7 7 7 7 7 7 6
13 13 13 14 13 13 14 11 14 12 14 13 13 13 13 13 13 13 12 13 12 11 10 10 11 11 11 10 9 8 7 8 8 9 8 9 10 10 9 8 9 9 8 8 7 7 7 7 7 7 7 6 6 6
13 13 13 13 15 12 12 11 14 14 14 13 13 14 13 13 12 11 12 12 12 11 10 10 9 8 9 8 8 7 7 8 9 9 8 8 8 8 8 7 7 8 8 7 6 7 6 6 6 7 7 7 7 6
12 12 13 13 13 12 14 14 13 13 13 13 13 13 13 13 12 13 12 12 13 11 12 10 9 11 10 9 10 8 7 7 9 8 7 8 9 8 7 7 7 6 6 7 7 7 7 7 7 7 7 7 6 6
12 12 12 9 13 15 16 15 15 15 14 13 13 14 13 12 13 12 12 13 13 13 12 11 10 10 11 11 9 8 6 7 8 9 6 6 7 8 8 7 7 6 6 7 7 7 7 6 6 6 6 6 5 5
12 14 13 15 14 15 15 16 15 15 15 15 14 13 12 12 13 13 13 13 12 13 13 12 12 11 11 9 9 9 7 6 7 8 6 5 5 7 7 8 8 7 5 5 6 7 6 6 6 6 6 5 4 5
14 16 14 11 13 13 14 14 14 14 15 15 14 14 14 13 14 14 13 12 12 12 10 9 10 10 10 9 7 6 6 5 5 5 4 4 4 4 4 5 6 5 4 5 6 6 6 6 6 5 5 5 5 4
16 14 17 15 14 14 16 15 15 15 16 14 14 14 14 14 15 15 14 11 11 10 10 9 8 8 8 7 6 6 6 6 5 4 4 4 4 4 3 4 4 4 4 4 5 5 5 5 5 5 5 4 4 4
16 15 15 16 16 15 16 17 17 16 15 15 15 15 15 14 13 13 11 10 11 9 10 9 7 6 6 5 5 5 6 6 6 6 6 6 5 5 3 3 4 4 4 5 4 4 4 4 4 4 4 4 3 3
17 15 16 16 17 18 18 17 16 14 13 14 13 12 12 12 11 10 10 10 10 10 11 9 8 8 8 8 7 6 5 5 5 5 6 5 4 3 3 3 3 3 3 4 5 4 3 4 3 4 3 3 3 4
15 15 16 17 18 17 16 14 12 12 12 13 12 13 13 11 10 10 9 9 9 9 9 9 8 8 8 8 7 7 7 5 4 4 4 4 3 3 3 3 3 3 3 4 4 4 4 4 3 3 3 3 3 3
16 16 17 18 18 15 14 15 15 15 14 13 13 12 12 12 12 11 9 8 8 9 9 9 10 9 7 7 6 5 5 5 5 5 4 4 4 3 3 3 3 3 3 3 3 3 3 3 3 3 3 3 3 3
17 16 16 17 16 16 15 15 15 15 14 14 14 13 13 14 13 11 9 9 9 10 10 9 8 7 7 7 6 6 5 5 5 5 4 4 4 3 3 3 3 3 3 3 3 3 3 3 3 3 3 3 3 2

GFSWCAN_925_temp_024.txt.gz
Temp
8 8 8 8 8 8 8 8 9 8 9 8 6 7 7 7 7 7 7 6 6 6 8 11 11 10 10 9 9 11 11 11 12 11 13 15 15 16 17 19 19 19 18 19 20 20 20 26 25 24 24 25 25 26
9 8 8 8 8 8 8 8 9 9 9 7 7 7 7 7 7 7 7 7 6 6 7 9 9 9 10 10 9 8 11 12 13 12 11 12 13 14 15 16 19 17 19 20 21 21 22 24 24 24 24 24 24 24
8 8 8 8 8 8 8 8 9 9 9 6 7 6 7 7 7 7 7 6 5 6 7 8 13 13 11 11 10 8 10 11 12 13 11 12 11 15 13 15 16 17 19 18 19 20 21 21 22 23 23 23 24 25
8 8 8 8 8 8 8 9 9 7 7 7 7 7 7 7 7 7 8 7 6 6 7 11 11 12 12 11 11 10 12 11 11 11 9 8 9 14 14 16 16 18 17 17 17 19 20 21 21 21 22 23 23 24
8 9 9 9 9 9 9 8 7 8 7 7 7 7 7 7 8 8 7 7 7 7 7 9 10 12 12 12 11 11 11 11 9 8 8 8 9 10 13 13 14 16 16 16 17 19 19 19 21 19 20 20 21 23
9 9 9 9 8 8 8 8 8 7 7 7 7 7 7 7 7 9 10 7 6 6 7 8 12 12 12 11 11 11 11 11 10 8 9 10 11 9 10 11 16 17 18 17 18 19 19 19 19 19 19 20 22 23
9 9 9 9 7 7 10 9 8 8 7 7 7 7 9 7 7 9 9 7 7 6 6 7 9 12 11 11 10 10 9 8 8 7 7 8 11 9 9 11 15 16 17 16 16 16 15 17 18 18 19 21 21 22
9 9 10 8 7 10 10 10 10 8 7 7 7 7 9 7 7 7 7 6 6 6 6 7 8 9 8 9 9 7 7 6 6 6 7 7 8 8 9 11 13 12 13 14 13 13 13 15 17 16 16 19 18 17
10 10 9 9 10 12 11 10 9 7 7 8 7 8 9 9 9 7 7 6 6 6 6 5 7 9 8 8 9 7 6 7 7 7 7 8 8 8 9 9 8 9 10 10 11 11 12 14 16 16 17 17 14 16
11 9 11 11 12 11 11 9 8 9 8 9 8 13 15 10 7 7 6 7 7 7 5 5 5 6 6 8 9 9 9 8 9 8 6 6 7 7 8 10 12 10 9 11 11 11 12 14 17 17 15 14 14 15
11 11 12 13 12 11 10 13 11 11 10 12 15 15 11 9 7 10 11 8 8 8 6 6 6 7 7 8 9 9 9 7 9 10 8 8 8 8 10 10 11 12 11 11 12 12 14 15 15 14 14 15 15 15
12 12 14 13 12 12 14 14 12 11 10 10 10 8 10 14 14 13 11 11 11 12 12 10 11 8 9 8 9 10 10 10 12 12 10 9 7 9 9 10 10 10 12 13 12 12 13 13 12 13 12 12 13 13
13 14 14 13 14 15 15 15 14 12 9 10 12 13 15 13 10 10 9 10 11 14 14 14 13 13 14 12 14 15 14 13 14 11 9 7 8 9 8 9 10 9 10 10 10 10 10 9 9 10 10 10 11 11
14 14 15 15 15 17 17 17 16 13 13 16 15 10 14 14 12 10 11 13 14 15 17 17 15 14 15 14 14 14 15 15 13 11 9 9 10 9 9 9 9 9 9 9 9 10 9 9 9 9 9 11 11 11
15 15 15 15 17 17 18 17 17 15 17 16 16 12 14 15 17 17 16 16 17 17 18 19 20 20 17 16 15 13 13 11 10 10 10 10 10 10 11 10 11 10 10 9 9 9 9 9 8 8 7 7 9 10
15 15 14 15 17 17 18 18 17 17 16 17 16 16 16 17 17 18 17 18 18 19 19 19 17 15 16 14 11 11 11 10 9 10 11 12 11 11 12 12 12 12 12 12 12 11 11 11 11 10 9 8 8 9
15 14 15 16 18 18 18 17 18 17 17 16 16 17 17 16 17 17 17 17 18 19 18 17 13 11 13 11 10 9 9 9 9 10 11 10 11 12 13 13 12 13 13 13 13 13 12 12 12 12 12 11 11 10
13 13 15 15 17 17 17 17 18 18 16 17 17 16 17 17 17 17 17 17 17 17 17 15 16 13 11 11 12 13 12 11 11 10 10 11 10 10 12 12 12 12 12 12 13 13 13 14 14 14 12 12 12 11
13 14 15 15 15 15 19 18 18 17 18 18 17 18 18 17 17 17 17 17 17 17 17 16 14 13 13 14 14 15 15 15 14 13 12 11 11 11 12 12 12 12 12 12 12 13 13 11 12 13 13 12 12 12
14 14 15 15 15 18 18 18 16 18 18 18 17 18 17 17 17 17 17 17 17 16 15 15 14 15 15 15 15 14 14 15 15 15 15 14 13 13 12 12 12 12 13 12 12 11 13 12 11 11 11 11 11 10
14 13 15 15 16 17 19 19 18 18 18 18 18 17 17 18 17 16 16 17 16 15 15 15 15 15 13 13 13 13 13 13 14 14 13 14 13 13 12 12 12 12 12 12 12 12 11 11 11 11 10 10 10 10
13 13 14 15 18 17 18 16 18 17 18 18 17 17 17 17 17 16 16 16 15 15 15 15 15 14 14 13 12 11 11 11 11 12 11 12 13 12 12 11 11 11 11 11 11 11 10 10 10 10 10 10 9 8
13 13 15 17 18 15 15 16 18 18 17 17 17 17 17 17 16 16 16 16 15 15 14 14 13 12 12 12 11 11 11 11 12 12 11 11 11 11 11 10 10 10 10 10 10 10 10 9 9 10 10 10 10 9
12 15 17 18 18 15 18 18 18 18 17 17 17 16 17 16 16 16 16 16 16 15 15 14 14 15 14 12 14 12 11 11 12 12 10 10 11 11 10 10 10 10 9 10 10 10 9 9 8 9 9 9 9 9
13 14 15 10 18 18 19 19 18 18 18 18 17 17 17 16 16 16 16 16 16 16 15 15 15 14 14 14 13 12 10 11 11 11 10 9 10 10 11 10 10 9 9 9 9 9 9 9 8 8 8 8 7 8
13 17 14 19 18 19 19 19 19 18 19 18 18 17 17 16 16 16 17 16 16 16 16 15 15 15 15 13 13 12 11 10 10 10 9 8 8 9 9 10 10 10 8 8 8 9 9 8 8 8 8 7 6 7
16 19 19 17 18 19 19 19 19 19 18 18 18 17 17 17 17 18 18 17 17 15 14 13 13 14 13 12 11 10 9 9 8 8 7 7 7 7 7 8 8 7 7 7 8 8 8 8 8 8 8 7 7 7
20 19 20 20 19 20 19 20 19 19 20 19 19 18 18 18 18 18 18 16 15 13 13 12 12 12 12 11 10 10 10 9 9 9 8 8 7 7 6 6 6 5 6 6 6 7 7 7 7 7 7 7 7 6
20 21 20 20 20 20 20 20 21 22 21 20 19 19 19 19 18 17 15 14 13 12 12 12 12 11 10 9 9 9 9 9 9 9 9 9 8 7 6 6 6 6 6 7 5 5 5 5 5 5 6 6 6 6
21 21 21 21 20 21 22 22 22 21 20 20 19 18 18 18 15 14 13 11 10 11 11 12 12 11 12 11 11 10 9 8 8 8 9 8 7 6 6 6 6 6 6 7 7 6 4 4 5 5 5 5 5 5
21 20 20 21 22 23 21 20 18 18 18 19 19 18 19 17 14 12 12 10 10 12 12 12 12 12 11 11 11 10 10 9 7 7 6 7 6 6 6 6 6 6 6 6 5 5 5 5 5 5 5 4 4 5
21 21 21 21 22 21 19 20 20 20 19 18 19 18 17 16 16 13 10 11 12 13 11 12 13 11 10 10 9 9 7 8 8 7 6 6 6 6 6 6 5 5 5 5 4 4 4 4 4 4 4 4 4 4
22 22 21 21 21 21 21 19 19 19 19 19 18 17 17 17 16 13 10 10 12 13 13 12 11 10 9 9 8 8 7 7 6 6 5 5 4 4 4 5 5 5 4 4 4 4 4 3 3 3 3 3 3 3

GFSWCAN_925_temp_027.txt.gz
Temp
9 9 9 9 9 9 8 8 9 8 7 6 7 7 7 7 7 7 8 7 6 6 7 10 12 11 12 12 10 13 14 15 15 14 15 16 18 18 19 21 22 21 21 21 22 22 23 29 29 27 25 26 26 27
9 9 9 9 9 9 8 8 8 8 6 6 7 7 7 7 8 7 8 7 7 6 8 10 10 11 12 12 11 11 13 13 14 13 13 14 17 18 18 19 22 20 21 22 23 24 25 26 26 27 26 25 25 25
9 9 9 9 9 9 8 8 8 6 6 7 7 7 7 7 7 7 8 7 6 6 7 8 13 13 13 13 12 9 12 13 13 14 13 14 14 18 16 19 19 20 21 21 21 23 23 24 25 25 25 25 25 25
9 9 9 9 9 8 8 7 6 7 7 7 7 7 7 7 8 8 8 7 6 7 7 11 14 14 13 13 13 12 13 12 12 14 11 12 12 17 16 16 17 20 20 20 20 21 22 23 23 23 24 24 24 25
9 9 9 9 8 9 7 7 7 7 7 7 7 7 7 7 8 9 8 7 7 7 8 9 11 14 14 14 13 13 12 12 11 10 10 12 14 14 16 16 17 19 19 19 19 21 21 21 23 23 23 23 23 23
9 9 9 8 8 6 7 8 8 7 7 7 7 7 7 7 8 10 10 7 7 6 7 9 13 12 12 13 12 12 12 12 11 9 10 11 13 11 10 13 17 18 19 19 19 20 21 21 22 23 23 23 22 22
9 9 9 7 8 8 11 11 9 7 7 7 7 8 10 9 10 11 11 9 7 6 7 7 9 11 10 10 9 9 9 8 8 7 7 7 8 8 8 11 15 16 15 16 17 16 17 19 18 21 21 21 21 22
9 9 7 8 10 11 11 10 8 7 7 7 8 9 10 9 10 10 7 7 6 6 6 7 8 9 8 9 9 7 7 7 6 6 6 7 7 7 8 10 11 10 11 13 16 16 17 18 18 18 18 19 21 20
9 9 9 11 12 12 11 10 7 8 7 9 9 9 10 9 11 8 7 6 6 7 6 6 7 8 7 8 9 7 6 7 6 6 6 6 7 8 8 6 6 8 8 9 14 14 14 16 16 16 17 19 19 18
11 11 12 13 13 12 11 12 11 10 10 10 8 12 14 12 8 7 6 8 7 7 6 6 6 7 7 8 9 9 8 8 9 9 6 6 7 6 7 10 12 12 9 10 11 11 11 12 14 15 16 19 19 19
12 13 14 14 13 12 15 14 12 11 11 12 18 18 13 9 8 11 15 13 13 12 9 10 8 9 8 9 10 9 9 8 10 12 10 8 8 8 9 10 11 12 13 12 12 12 12 13 14 15 17 19 18 15
13 14 15 14 13 13 15 14 14 13 15 14 14 14 14 15 17 17 14 15 15 15 16 15 17 11 10 9 10 12 13 13 14 16 11 10 8 9 9 10 10 10 10 10 11 11 12 12 15 14 12 13 12 11
14 15 15 15 15 15 15 15 15 14 12 14 16 16 17 16 14 12 11 12 12 16 17 18 18 18 16 12 15 17 18 16 18 14 9 9 11 10 10 11 10 10 10 10 10 9 9 10 10 10 11 11 11 10
15 16 16 16 16 16 16 16 16 15 12 20 19 13 16 16 16 14 15 17 19 19 20 19 19 21 20 18 18 15 18 17 13 11 10 11 12 13 12 12 12 11 11 10 9 9 9 9 8 9 9 9 10 9
15 16 16 16 16 18 17 17 18 16 20 19 19 15 17 19 20 21 21 21 21 22 22 20 21 22 20 18 16 16 15 12 10 10 12 13 13 13 14 14 14 14 14 13 12 10 9 8 8 8 9 9 10 10
16 16 15 15 17 18 17 18 19 19 20 20 20 19 20 20 20 21 20 20 21 22 21 21 19 18 18 17 13 11 11 10 10 12 14 14 13 13 14 14 14 14 14 15 15 14 13 12 11 10 10 11 10 10
16 17 16 16 17 18 18 20 20 20 19 19 20 21 20 20 19 20 20 20 21 21 21 20 16 16 18 16 12 11 10 9 14 13 14 13 13 14 14 14 14 14 14 14 14 15 15 15 14 13 13 12 12 12
15 16 16 16 17 18 20 20 21 20 19 20 20 20 20 20 19 20 20 20 20 20 20 18 19 16 15 13 14 15 15 12 14 15 14 14 14 13 14 14 14 14 14 13 14 14 14 15 15 15 15 14 14 14
14 16 16 16 16 16 21 20 20 20 20 21 21 21 21 20 20 20 20 20 20 20 20 19 15 14 14 15 15 17 17 16 16 15 15 14 14 14 14 14 14 14 14 14 13 15 14 14 14 14 14 14 14 13
15 16 16 16 15 20 21 21 20 21 21 21 21 21 20 20 20 20 20 20 20 19 18 17 17 17 17 17 17 16 16 16 16 16 16 17 15 15 14 14 14 14 15 14 15 13 15 15 14 13 13 13 13 12
15 15 15 15 19 20 22 22 22 21 21 20 21 21 20 21 20 20 19 20 19 18 17 18 18 17 15 15 15 14 15 14 15 15 14 15 14 15 14 14 14 14 14 14 15 14 14 14 13 13 12 12 12 12
16 15 16 18 20 20 21 21 21 21 21 21 21 21 20 20 20 19 19 19 18 18 17 17 16 16 16 15 14 13 13 13 14 14 13 13 15 15 14 14 13 13 14 13 13 13 13 12 11 12 12 12 12 11
15 15 19 20 20 17 17 20 21 21 20 20 21 20 20 20 20 19 19 19 19 18 17 16 15 15 14 14 14 14 13 13 14 14 14 13 14 14 13 13 13 13 13 12 12 13 12 11 11 11 12 12 12 12
14 18 20 21 20 17 21 21 21 21 21 21 20 19 20 20 20 19 19 19 19 18 18 16 16 17 16 14 17 15 13 13 14 14 14 13 13 13 13 13 13 12 12 12 12 12 12 11 11 11 11 11 11 11
15 17 17 11 21 21 21 21 21 21 21 21 20 20 20 20 19 19 19 19 19 18 18 17 17 17 17 16 16 15 13 13 13 13 13 12 12 12 13 13 13 12 11 11 12 12 11 11 11 10 10 9 9 10
12 20 16 22 22 21 22 21 21 21 21 21 21 21 20 20 19 19 20 19 19 18 18 17 17 17 17 16 15 15 13 12 11 12 11 11 11 11 12 12 13 11 10 10 11 11 11 11 10 10 10 9 8 9
16 22 23 23 22 22 22 23 23 22 21 21 22 21 20 18 19 20 20 19 18 17 14 14 14 14 16 15 14 13 12 11 10 10 10 10 10 10 9 10 10 9 8 10 10 10 10 10 10 10 10 9 9 8
23 23 22 23 23 24 22 22 22 21 22 23 22 20 19 19 19 20 20 18 17 13 12 13 11 14 13 13 13 13 12 12 12 11 11 11 10 10 9 9 9 7 8 8 8 8 8 9 9 8 8 8 8 7
23 23 24 22 23 23 23 22 23 22 23 23 22 21 21 22 21 20 18 17 15 13 14 13 14 14 13 13 13 12 12 12 12 12 11 12 11 10 9 9 9 9 9 8 6 7 6 6 6 7 7 7 7 7
23 24 23 23 23 23 22 24 24 25 24 23 23 22 22 21 19 17 16 15 14 15 15 13 15 14 14 14 14 14 13 11 11 11 11 11 10 9 9 8 8 8 8 8 8 7 6 6 6 6 6 7 6 7
24 24 23 24 23 24 25 25 24 24 23 22 23 21 22 21 17 15 15 15 15 15 15 15 15 15 14 14 13 13 13 12 9 9 8 9 9 8 8 7 7 7 7 7 7 7 6 6 6 6 6 6 5 6
24 23 24 23 24 25 24 24 24 23 24 22 22 22 21 20 17 17 14 15 16 16 14 14 15 14 13 12 12 11 9 10 10 9 8 8 8 7 7 7 7 7 6 6 6 6 6 6 6 6 5 5 5 5
24 25 24 24 24 24 25 24 23 22 23 22 21 20 21 20 17 16 14 14 15 15 15 14 13 12 11 11 10 10 9 9 8 7 6 6 5 5 5 7 6 6 6 6 6 5 5 5 5 5 5 5 5 5